STARLINK-1476 (45753 NORAD) Tracking and Keplerian Element Data

This shows tracking and keplerian element data for the satellite.

Feedback or suggestion? Click here.




ElementValue
Catalog45753
NameSTARLINK-1476
Epoch Orbit447
Epoch Day185.50001157
Epoch Year2020
RAAN197.6014
Inclination52.9984
Eccentricity0.0001241
Argument of Perigee111.1211
Mean Anonmoly237.6352
Mean Motion15.63221562
Decay Rate-0.00629036
L11 45753U 20038Z 20185.50001157 -.00629036 00000-0 -72758-2 0 9991
L22 45753 52.9984 197.6014 0001241 111.1211 237.6352 15.63221562 4473

Live tracking and technical data element details for STARLINK-1476 (NORAD 45753). STARLINK-1476 can be tracked NOW for your location showing map with azimuth and elevation plus other details from your city location.

Track the satellite on the map from your city or location and see movement details for azimuth, elevation, latitude, longitude, range, height, and movement on the map or in text.







IsCatalogInMostPopularTable: catalog: 45753, numindb: 4
Update: records affected: 1



GetName: 45753 STARLINK-1476

Hit Count: updated at: Sat, 04 Jul 2020 03:17:31 GMT